Regional Weather Roundup
Issued by NWS

Home | Current Version | Previous Version | Text Only | Print | Product List | Glossary On
Versions: 1 2 3 4 5 6 7 8 9 10 11 12 13 14 15 16 17 18 19 20 21 22 23 24 25 26 27 28 29 30 31 32 33 34 35 36 37 38 39 40 41 42 43 44 45 46 47 48 49 50
057
ASUS43 KFSD 241210
RWRSD

WEATHER ROUNDUP FOR SOUTH DAKOTA
NATIONAL WEATHER SERVICE SIOUX FALLS SD
700 AM CDT MON JUL 24 2017

NOTE: "FAIR" INDICATES FEW OR NO CLOUDS BELOW 12,000 FEET WITH NO
SIGNIFICANT WEATHER AND/OR OBSTRUCTIONS TO VISIBILITY.


SDZ001>005-009-010-012>017-241300-
NORTHWEST AND NORTH CENTRAL SOUTH DAKOTA

CITY           SKY/WX    TMP DP  RH WIND       PRES   REMARKS
BUFFALO          N/A     70  56  61 SE15      29.76F
FAITH            N/A     67  57  70 SE14      29.94S
MOBRIDGE       CLOUDY    67  61  81 SE7       29.94S
$$

SDZ012>016-024>037-041>051-057-063-072>074-241300-
SOUTHWEST AND SOUTH CENTRAL SOUTH DAKOTA

CITY           SKY/WX    TMP DP  RH WIND       PRES   REMARKS
RAPID CTY ARPT MOCLDY    65  53  65 SW3       29.90F
PIERRE         CLOUDY    67  58  72 SE14G22   29.92S
CUSTER         CLOUDY    62  47  57 CALM      30.05F
ELLSWORTH AFB  MOCLDY    65  55  69 CALM      29.89S
PHILIP         PTCLDY    68  59  73 SE7       29.91F
PINE RIDGE     CLEAR     69  56  62 S7        29.95R
SPEARFISH      FAIR      61  55  82 SE9       29.92F
WINNER         FAIR      70  57  63 S13       29.97F
$$

SDZ004>011-016>023-039-040-241300-
NORTHEAST SOUTH DAKOTA

CITY           SKY/WX    TMP DP  RH WIND       PRES   REMARKS
ABERDEEN       PTCLDY    59  59 100 SE8       29.99S
WATERTOWN      CLOUDY    59  57  93 SE5       30.01F
BROOKINGS      CLEAR     59  57  93 SE6       30.04S
SISSETON         N/A     59  57  93 SE3       30.00S
$$

SDZ017-020-022-023-036>040-048>070-241300-
SOUTHEAST SOUTH DAKOTA

CITY           SKY/WX    TMP DP  RH WIND       PRES   REMARKS
SIOUX FALLS    MOCLDY    59  58  96 CALM      30.04S
HURON          PTCLDY    61  59  93 SE8       29.99S
CHAMBERLAIN    PTCLDY    63  62  97 E8        29.98S
MITCHELL       PTCLDY    62  60  93 SE6       30.01S
YANKTON        CLEAR     60  59  96 E6        30.03S FOG
$$

ABBREVIATIONS USED IN REMARKS
   TC - TEMPERATURE IN CELSIUS
  WCI - WIND CHILL INDEX
   HX - HEAT INDEX
  VSB - VISIBILITY





USA.gov is the U.S. government's official web portal to all federal, state and local government web resources and services.